| time (UTC) | temp F | wind direction | speed MPH | gust MPH | rain 1hr in | rain 24hr in | rain mn in | humidity % | barometer mb |
| 20260505034928 | 52 | 225 | 0.0 | 0.0 | 0.00 | 0.02 | 0.00 | 87 | 1005.6 |
| 20260505034428 | 52 | 225 | 0.0 | 0.0 | 0.00 | 0.02 | 0.00 | 87 | 1005.7 |
| 20260505033928 | 52 | 225 | 0.0 | 0.0 | 0.00 | 0.02 | 0.00 | 87 | 1005.7 |
| 20260505033427 | 52 | 225 | 0.0 | 0.0 | 0.00 | 0.02 | 0.00 | 87 | 1005.7 |
| 20260505032927 | 52 | 225 | 0.0 | 0.0 | 0.00 | 0.02 | 0.00 | 87 | 1005.8 |
| 20260505032427 | 52 | 225 | 0.0 | 0.0 | 0.00 | 0.02 | 0.00 | 87 | 1005.9 |
| 20260505031926 | 52 | 225 | 0.0 | 0.0 | 0.00 | 0.02 | 0.00 | 87 | 1005.9 |
| 20260505031426 | 52 | 225 | 0.0 | 0.0 | 0.00 | 0.02 | 0.00 | 87 | 1006.0 |
| 20260505030926 | 52 | 225 | 0.0 | 0.0 | 0.00 | 0.02 | 0.00 | 87 | 1006.0 |
| 20260505030426 | 52 | 247 | 0.0 | 0.0 | 0.00 | 0.02 | 0.00 | 86 | 1005.9 |
| 20260505025925 | 52 | 90 | 0.0 | 0.0 | 0.00 | 0.02 | 0.00 | 86 | 1006.0 |
| 20260505025425 | 52 | 90 | 0.0 | 0.0 | 0.00 | 0.02 | 0.00 | 86 | 1006.1 |
| 20260505024925 | 52 | 202 | 0.0 | 0.0 | 0.00 | 0.02 | 0.00 | 86 | 1006.3 |
| 20260505024424 | 52 | 202 | 0.0 | 0.0 | 0.00 | 0.02 | 0.00 | 86 | 1006.3 |
| 20260505023924 | 52 | 202 | 0.0 | 0.0 | 0.00 | 0.02 | 0.00 | 86 | 1006.5 |
| 20260505023424 | 52 | 202 | 0.0 | 0.0 | 0.00 | 0.02 | 0.00 | 86 | 1006.3 |
| 20260505022924 | 52 | 247 | 0.0 | 0.0 | 0.00 | 0.02 | 0.00 | 86 | 1006.3 |
| 20260505022423 | 52 | 247 | 0.0 | 0.0 | 0.00 | 0.02 | 0.00 | 85 | 1006.3 |
| 20260505021923 | 52 | 247 | 0.0 | 0.0 | 0.00 | 0.02 | 0.00 | 85 | 1006.5 |
| 20260505021423 | 52 | 247 | 0.0 | 0.0 | 0.00 | 0.02 | 0.00 | 85 | 1006.7 |
| 20260505020922 | 52 | 247 | 0.0 | 0.0 | 0.00 | 0.02 | 0.00 | 85 | 1006.6 |
| 20260505020422 | 52 | 247 | 0.0 | 0.0 | 0.00 | 0.02 | 0.00 | 85 | 1006.5 |
| 20260505015922 | 52 | 247 | 0.0 | 0.0 | 0.00 | 0.02 | 0.00 | 85 | 1006.4 |
| 20260505015422 | 53 | 247 | 0.0 | 0.0 | 0.00 | 0.02 | 0.00 | 85 | 1006.5 |
| 20260505014921 | 53 | 247 | 0.0 | 0.0 | 0.00 | 0.02 | 0.00 | 85 | 1006.4 |
| 20260505014421 | 52 | 247 | 0.0 | 0.0 | 0.00 | 0.02 | 0.00 | 85 | 1006.5 |
| 20260505013921 | 53 | 247 | 0.0 | 0.0 | 0.00 | 0.02 | 0.00 | 85 | 1006.5 |
| 20260505013420 | 53 | 247 | 0.0 | 0.0 | 0.00 | 0.02 | 0.00 | 85 | 1006.5 |
| 20260505012920 | 52 | 247 | 0.0 | 0.0 | 0.00 | 0.02 | 0.00 | 85 | 1006.6 |
| 20260505012420 | 52 | 247 | 0.0 | 0.0 | 0.00 | 0.02 | 0.00 | 85 | 1006.5 |
| 20260505011920 | 52 | 270 | 0.0 | 0.0 | 0.00 | 0.02 | 0.00 | 85 | 1006.6 |
| 20260505011419 | 53 | 270 | 0.0 | 0.0 | 0.00 | 0.02 | 0.00 | 85 | 1006.6 |
| 20260505010919 | 52 | 270 | 0.0 | 0.0 | 0.00 | 0.02 | 0.00 | 85 | 1006.7 |
| 20260505010419 | 52 | 270 | 0.0 | 0.0 | 0.00 | 0.02 | 0.00 | 85 | 1006.6 |
| 20260505005918 | 52 | 270 | 0.0 | 0.0 | 0.00 | 0.02 | 0.00 | 85 | 1006.8 |
| 20260505005418 | 52 | 270 | 0.0 | 0.0 | 0.00 | 0.02 | 0.00 | 85 | 1006.8 |
| 20260505004918 | 52 | 270 | 0.0 | 0.0 | 0.00 | 0.02 | 0.00 | 85 | 1006.7 |
| 20260505004418 | 52 | 270 | 0.0 | 0.0 | 0.00 | 0.02 | 0.00 | 85 | 1006.8 |
| 20260505003917 | 52 | 270 | 0.0 | 0.0 | 0.00 | 0.02 | 0.00 | 85 | 1006.8 |
| 20260505003417 | 52 | 270 | 0.0 | 0.0 | 0.00 | 0.02 | 0.00 | 85 | 1006.7 |
| 20260505002917 | 52 | 270 | 0.0 | 0.0 | 0.00 | 0.02 | 0.00 | 85 | 1006.6 |
| 20260505002416 | 52 | 270 | 0.0 | 0.0 | 0.00 | 0.02 | 0.00 | 85 | 1006.7 |
| 20260505001916 | 52 | 270 | 0.0 | 0.0 | 0.00 | 0.02 | 0.00 | 85 | 1006.8 |
| 20260505001416 | 52 | 270 | 0.0 | 0.0 | 0.00 | 0.02 | 0.00 | 85 | 1007.1 |
| 20260505000916 | 52 | 270 | 0.0 | 0.0 | 0.00 | 0.02 | 0.00 | 85 | 1007.1 |
| 20260505000415 | 52 | 270 | 0.0 | 0.0 | 0.00 | 0.02 | 0.00 | 85 | 1007.0 |
| 20260504235915 | 53 | 270 | 0.0 | 0.0 | 0.00 | 0.02 | 0.00 | 85 | 1007.0 |
| 20260504235415 | 53 | 270 | 0.0 | 0.0 | 0.00 | 0.02 | 0.00 | 85 | 1007.1 |
| 20260504234914 | 52 | 270 | 0.0 | 0.0 | 0.00 | 0.02 | 0.00 | 85 | 1007.1 |
| 20260504234414 | 52 | 270 | 0.0 | 0.0 | 0.00 | 0.02 | 0.00 | 85 | 1007.4 |
| 20260504233914 | 52 | 45 | 0.0 | 0.0 | 0.00 | 0.02 | 0.00 | 85 | 1007.4 |
| 20260504233414 | 52 | 45 | 0.0 | 0.0 | 0.00 | 0.02 | 0.00 | 84 | 1007.4 |
| 20260504232913 | 52 | 45 | 0.0 | 0.0 | 0.00 | 0.02 | 0.00 | 84 | 1007.5 |
| 20260504232413 | 52 | 45 | 0.0 | 0.0 | 0.00 | 0.02 | 0.00 | 84 | 1007.5 |
| 20260504231913 | 52 | 45 | 0.0 | 0.0 | 0.00 | 0.02 | 0.00 | 84 | 1007.6 |
| 20260504231412 | 52 | 45 | 0.0 | 0.0 | 0.00 | 0.02 | 0.00 | 84 | 1007.6 |
| 20260504230912 | 52 | 45 | 0.0 | 0.0 | 0.00 | 0.02 | 0.00 | 83 | 1007.6 |
| 20260504230412 | 53 | 45 | 0.0 | 0.0 | 0.00 | 0.02 | 0.00 | 83 | 1007.7 |
| 20260504225911 | 53 | 45 | 0.0 | 0.0 | 0.00 | 0.02 | 0.00 | 84 | 1007.9 |
| 20260504225411 | 53 | 67 | 0.0 | 0.0 | 0.00 | 0.02 | 0.00 | 84 | 1007.9 |
| 20260504224911 | 53 | 67 | 0.0 | 0.0 | 0.00 | 0.02 | 0.00 | 83 | 1007.8 |
| 20260504224411 | 53 | 202 | 0.0 | 0.0 | 0.00 | 0.02 | 0.00 | 83 | 1007.9 |
| 20260504223910 | 53 | 202 | 0.0 | 0.0 | 0.00 | 0.02 | 0.00 | 83 | 1007.9 |
| 20260504223410 | 53 | 202 | 0.0 | 0.0 | 0.00 | 0.02 | 0.00 | 83 | 1008.0 |
| 20260504222910 | 53 | 202 | 0.0 | 0.0 | 0.00 | 0.02 | 0.00 | 83 | 1008.0 |
| 20260504222410 | 53 | 202 | 0.0 | 0.0 | 0.00 | 0.02 | 0.00 | 83 | 1008.0 |
| 20260504221909 | 53 | 202 | 0.0 | 0.0 | 0.00 | 0.02 | 0.00 | 83 | 1007.9 |
| 20260504221409 | 54 | 202 | 0.0 | 0.0 | 0.00 | 0.02 | 0.00 | 83 | 1008.0 |
| 20260504220909 | 54 | 202 | 0.0 | 0.0 | 0.00 | 0.02 | 0.00 | 84 | 1008.0 |
| 20260504220408 | 53 | 202 | 0.0 | 0.0 | 0.00 | 0.02 | 0.00 | 84 | 1008.0 |
| 20260504215908 | 53 | 202 | 0.0 | 0.0 | 0.00 | 0.02 | 0.00 | 84 | 1008.0 |
| 20260504215408 | 53 | 202 | 0.0 | 0.0 | 0.00 | 0.02 | 0.00 | 84 | 1008.0 |
| 20260504214908 | 53 | 202 | 0.0 | 0.0 | 0.00 | 0.02 | 0.00 | 84 | 1008.3 |
| 20260504214407 | 53 | 202 | 0.0 | 0.0 | 0.00 | 0.02 | 0.00 | 84 | 1008.2 |
| 20260504213907 | 53 | 202 | 0.0 | 0.0 | 0.00 | 0.02 | 0.00 | 84 | 1008.2 |
| 20260504213407 | 53 | 202 | 0.0 | 0.0 | 0.00 | 0.02 | 0.00 | 84 | 1008.2 |
| 20260504212906 | 53 | 202 | 0.0 | 0.0 | 0.00 | 0.02 | 0.00 | 83 | 1008.1 |
| 20260504212406 | 53 | 202 | 0.0 | 0.0 | 0.00 | 0.02 | 0.00 | 83 | 1008.1 |
| 20260504211906 | 53 | 202 | 0.0 | 0.0 | 0.00 | 0.02 | 0.00 | 83 | 1008.2 |
| 20260504211405 | 53 | 202 | 0.0 | 0.0 | 0.00 | 0.02 | 0.00 | 83 | 1008.0 |
| 20260504210905 | 53 | 202 | 0.0 | 0.0 | 0.00 | 0.02 | 0.00 | 82 | 1008.2 |
| 20260504210405 | 53 | 202 | 0.0 | 0.0 | 0.00 | 0.02 | 0.00 | 82 | 1008.2 |
| 20260504205905 | 53 | 202 | 0.0 | 0.0 | 0.00 | 0.02 | 0.00 | 82 | 1008.4 |
| 20260504205404 | 54 | 202 | 0.0 | 0.0 | 0.00 | 0.02 | 0.00 | 82 | 1008.4 |
| 20260504204904 | 54 | 202 | 0.0 | 0.0 | 0.00 | 0.02 | 0.00 | 82 | 1008.4 |
| 20260504204404 | 54 | 247 | 0.0 | 0.0 | 0.00 | 0.02 | 0.00 | 82 | 1008.4 |
| 20260504203903 | 54 | 247 | 0.0 | 0.0 | 0.00 | 0.02 | 0.00 | 82 | 1008.4 |
| 20260504203403 | 54 | 247 | 0.0 | 0.0 | 0.00 | 0.02 | 0.00 | 82 | 1008.3 |
| 20260504202903 | 54 | 247 | 0.0 | 0.0 | 0.00 | 0.02 | 0.00 | 82 | 1008.3 |
| 20260504202403 | 54 | 247 | 0.0 | 0.0 | 0.00 | 0.02 | 0.00 | 82 | 1008.3 |
| 20260504201902 | 54 | 247 | 0.0 | 0.0 | 0.00 | 0.02 | 0.00 | 82 | 1008.3 |
| 20260504201402 | 54 | 247 | 0.0 | 0.0 | 0.00 | 0.02 | 0.00 | 82 | 1008.4 |
| 20260504200902 | 54 | 247 | 0.0 | 0.0 | 0.00 | 0.02 | 0.00 | 81 | 1008.4 |
| 20260504200401 | 54 | 247 | 0.0 | 0.0 | 0.00 | 0.02 | 0.00 | 81 | 1008.3 |
| 20260504195901 | 54 | 247 | 0.0 | 0.0 | 0.00 | 0.02 | 0.00 | 81 | 1008.1 |
| 20260504195401 | 54 | 247 | 0.0 | 0.0 | 0.00 | 0.02 | 0.00 | 81 | 1008.0 |
| 20260504194901 | 55 | 247 | 0.0 | 0.0 | 0.00 | 0.02 | 0.00 | 81 | 1008.0 |
| 20260504194400 | 55 | 247 | 0.0 | 0.0 | 0.00 | 0.02 | 0.00 | 81 | 1007.9 |
| 20260504193900 | 55 | 247 | 0.0 | 0.0 | 0.00 | 0.02 | 0.00 | 81 | 1007.9 |
| 20260504193400 | 55 | 225 | 0.0 | 0.0 | 0.00 | 0.02 | 0.00 | 81 | 1007.9 |
| 20260504192859 | 56 | 247 | 0.0 | 0.0 | 0.00 | 0.02 | 0.00 | 80 | 1007.9 |
| 20260504192359 | 56 | 270 | 0.0 | 0.0 | 0.00 | 0.02 | 0.00 | 80 | 1007.9 |
| 20260504191859 | 56 | 180 | 0.0 | 0.0 | 0.00 | 0.02 | 0.00 | 80 | 1007.9 |
| 20260504191359 | 56 | 180 | 0.0 | 0.0 | 0.00 | 0.02 | 0.00 | 80 | 1007.9 |
| 20260504190858 | 56 | 112 | 0.0 | 0.0 | 0.02 | 0.02 | 0.00 | 80 | 1007.9 |
| 20260504190358 | 56 | 112 | 0.0 | 0.0 | 0.02 | 0.02 | 0.00 | 80 | 1007.9 |
| 20260504185858 | 56 | 112 | 0.0 | 0.0 | 0.02 | 0.02 | 0.00 | 80 | 1008.0 |
| 20260504185358 | 56 | 112 | 0.0 | 0.0 | 0.02 | 0.02 | 0.00 | 80 | 1008.0 |
| 20260504184857 | 56 | 90 | 0.0 | 0.0 | 0.02 | 0.02 | 0.00 | 79 | 1008.0 |
| 20260504184357 | 56 | 67 | 0.0 | 0.0 | 0.02 | 0.02 | 0.00 | 79 | 1008.0 |
| 20260504183857 | 56 | 135 | 0.0 | 0.0 | 0.02 | 0.02 | 0.00 | 78 | 1008.0 |
| 20260504183356 | 56 | 135 | 0.0 | 0.0 | 0.02 | 0.02 | 0.00 | 78 | 1008.0 |
| 20260504182856 | 56 | 45 | 0.0 | 0.0 | 0.02 | 0.02 | 0.00 | 77 | 1008.1 |
| 20260504182356 | 56 | 45 | 0.0 | 0.0 | 0.02 | 0.02 | 0.00 | 76 | 1008.1 |
| 20260504181855 | 56 | 22 | 0.0 | 0.0 | 0.02 | 0.02 | 0.00 | 76 | 1008.1 |
| 20260504181355 | 56 | 247 | 0.0 | 0.0 | 0.00 | 0.00 | 0.00 | 75 | 1008.1 |
| 20260504180855 | 57 | 45 | 0.0 | 0.0 | 0.00 | 0.00 | 0.00 | 75 | 1008.2 |
| 20260504180355 | 57 | 67 | 0.0 | 0.0 | 0.00 | 0.00 | 0.00 | 74 | 1008.3 |
| 20260504175854 | 58 | 202 | 0.0 | 0.0 | 0.00 | 0.00 | 0.00 | 74 | 1008.2 |
| 20260504175354 | 58 | 202 | 0.0 | 0.0 | 0.00 | 0.00 | 0.00 | 74 | 1008.3 |
| 20260504174854 | 58 | 112 | 0.0 | 0.0 | 0.00 | 0.00 | 0.00 | 74 | 1008.1 |
| 20260504174353 | 57 | 112 | 0.0 | 0.0 | 0.00 | 0.00 | 0.00 | 75 | 1008.1 |
| 20260504173853 | 57 | 247 | 0.0 | 0.0 | 0.00 | 0.00 | 0.00 | 75 | 1008.1 |
| 20260504173353 | 57 | 90 | 0.0 | 0.0 | 0.00 | 0.00 | 0.00 | 74 | 1008.0 |
| 20260504172853 | 57 | 112 | 0.0 | 0.0 | 0.00 | 0.00 | 0.00 | 72 | 1008.0 |
| 20260504172352 | 57 | 270 | 0.0 | 0.0 | 0.00 | 0.00 | 0.00 | 71 | 1007.9 |
| 20260504171852 | 58 | 270 | 0.0 | 0.0 | 0.00 | 0.00 | 0.00 | 71 | 1008.0 |
| 20260504171352 | 58 | 270 | 0.0 | 2.0 | 0.00 | 0.00 | 0.00 | 69 | 1008.0 |
| 20260504170851 | 58 | 180 | 0.0 | 0.0 | 0.00 | 0.00 | 0.00 | 68 | 1008.0 |
| 20260504170351 | 59 | 225 | 0.0 | 0.0 | 0.00 | 0.00 | 0.00 | 67 | 1007.9 |
| 20260504160348 | 73 | 270 | 0.0 | 0.0 | 0.00 | 0.00 | 0.00 | 46 | 1007.4 |
| 20260504150844 | 75 | 292 | 0.0 | 0.0 | 0.00 | 0.00 | 0.00 | 43 | 1007.5 |
| 20260504150344 | 76 | 270 | 0.0 | 0.0 | 0.00 | 0.00 | 0.00 | 43 | 1007.5 |
| 20260504140841 | 78 | 270 | 0.0 | 0.0 | 0.00 | 0.00 | 0.00 | 40 | 1007.6 |
| 20260504140341 | 78 | 270 | 0.0 | 0.0 | 0.00 | 0.00 | 0.00 | 40 | 1007.7 |
| 20260504130337 | 82 | 67 | 4.0 | 6.0 | 0.00 | 0.00 | 0.00 | 36 | 1008.1 |
| 20260504110330 | 80 | 270 | 0.0 | 0.0 | 0.00 | 0.00 | 0.00 | 36 | 1008.6 |
| 20260504100327 | 76 | 202 | 0.0 | 1.0 | 0.00 | 0.00 | 0.00 | 40 | 1008.9 |
| 20260504081821 | 70 | 270 | 1.0 | 2.0 | 0.00 | 0.00 | 0.00 | 47 | 1009.4 |
| 20260504081321 | 69 | 247 | 2.0 | 3.0 | 0.00 | 0.00 | 0.00 | 47 | 1009.5 |
| 20260504080820 | 69 | 247 | 3.0 | 5.0 | 0.00 | 0.00 | 0.00 | 47 | 1009.6 |
| 20260504080320 | 69 | 270 | 5.0 | 6.0 | 0.00 | 0.00 | 0.00 | 47 | 1009.6 |
| 20260504070317 | 69 | 247 | 1.0 | 4.0 | 0.00 | 0.00 | 0.00 | 47 | 1009.0 |
| 20260504050310 | 52 | 225 | 0.0 | 0.0 | 0.00 | 0.00 | 0.00 | 73 | 1008.9 |
| 20260504045809 | 52 | 225 | 0.0 | 0.0 | 0.00 | 0.00 | 0.00 | 73 | 1008.8 |
| 20260504045309 | 52 | 247 | 0.0 | 0.0 | 0.00 | 0.00 | 0.00 | 73 | 1008.9 |
| 20260504044809 | 52 | 157 | 0.0 | 0.0 | 0.00 | 0.00 | 0.00 | 73 | 1008.8 |
| 20260504044309 | 52 | 157 | 0.0 | 0.0 | 0.00 | 0.00 | 0.00 | 72 | 1008.8 |
| 20260504043808 | 52 | 157 | 0.0 | 0.0 | 0.00 | 0.00 | 0.00 | 72 | 1008.7 |
| 20260504043308 | 52 | 157 | 0.0 | 0.0 | 0.00 | 0.00 | 0.00 | 72 | 1008.7 |
| 20260504042808 | 52 | 202 | 0.0 | 0.0 | 0.00 | 0.00 | 0.00 | 72 | 1008.8 |
| 20260504042307 | 52 | 247 | 0.0 | 0.0 | 0.00 | 0.00 | 0.00 | 71 | 1008.7 |
| 20260504041807 | 53 | 270 | 0.0 | 0.0 | 0.00 | 0.00 | 0.00 | 71 | 1008.6 |
| 20260504041307 | 53 | 270 | 0.0 | 0.0 | 0.00 | 0.00 | 0.00 | 71 | 1008.6 |
| 20260504040807 | 53 | 247 | 0.0 | 0.0 | 0.00 | 0.00 | 0.00 | 71 | 1008.6 |
| 20260504040306 | 52 | 247 | 0.0 | 0.0 | 0.00 | 0.00 | 0.00 | 71 | 1008.4 |
| 20260504035806 | 53 | 247 | 0.0 | 0.0 | 0.00 | 0.00 | 0.00 | 70 | 1008.4 |
| 20260504035306 | 53 | 135 | 0.0 | 0.0 | 0.00 | 0.00 | 0.00 | 69 | 1008.5 |